{"data":{"norad_id":53836,"epoch":"2026-09-20T22:00:03.000096Z","epoch_age_seconds":48312,"freshness":"FRESH","line1":"1 53836U 22114U   26263.91670139  .00007688  00000+0  25929-3 0  9998","line2":"2 53836  53.1601 112.2343 0001453  80.2937 328.4039 15.31696999  5845","mean_motion":15.31696999,"eccentricity":0.0001453,"inclination_deg":53.1601,"raan_deg":112.2343,"arg_perigee_deg":80.2937,"mean_anomaly_deg":328.4039,"bstar":0.00025929,"rev_number":584,"period_min":94.013372157818,"perigee_km":469.75379793786,"apogee_km":471.74408419233,"semimajor_km":6848.8859410651,"source":"CELESTRAK","updated_at":"2026-09-21T09:00:33.001174Z"}}